Location: Ajisawe
(8.4333°N, 4.3833°E)
Time: 23:32:53
(UTC+00:00)

SR - Pass Details

Date: 22 April 2021
Orbit: 573 x 882 km, 66.7° (Epoch: 07 May)

Event Time Altitude Azimuth Distance (km) Brightness Sun altitude
Rises 04:43:27 0° 183° (S) 3,065 ? -12.1°
Reaches altitude 10° 04:45:51 10° 174° (S) 2,198 ? -11.5°
Maximum altitude 04:50:28 36° 107° (ESE) 1,181 ? -10.4°
Drops below altitude 10° 04:55:27 10° 42° (NE) 2,382 ? -9.2°
Sets 04:58:08 0° 34° (NE) 3,357 ? -8.5°
